This is the latest recevied weather packets stored in our database for station/object K3CHZ. If no packets are shown the sender has not sent any weather packets the latest 10 day(s).
| Time | Temp. | Humidity | Pressure | Rain* | Wind** | Luminosity | Snow |
|---|---|---|---|---|---|---|---|
| 1777658240 | 16.67° C | 44% | 1013 hPa | 0 mm | - | - | - |
| 1777657939 | 16.67° C | 44% | 1013.1 hPa | 0 mm | - | - | - |
| 1777657639 | 16.67° C | 46% | 1013 hPa | 0 mm | - | - | - |
| 1777657339 | 16.67° C | 44% | 1013 hPa | 0 mm | - | - | - |
| 1777657039 | 16.67° C | 44% | 1013.1 hPa | 0 mm | - | - | - |
| 1777656739 | 16.67° C | 43% | 1013.1 hPa | 0 mm | - | - | - |
| 1777656439 | 16.67° C | 43% | 1013.3 hPa | 0 mm | - | - | - |
| 1777656139 | 16.67° C | 43% | 1013.3 hPa | 0 mm | - | - | - |
| 1777655840 | 16.11° C | 46% | 1013.2 hPa | 0 mm | - | - | - |
| 1777655542 | 16.11° C | 47% | 1013.3 hPa | 0 mm | - | - | - |
| 1777655239 | 16.11° C | 44% | 1013.2 hPa | 0 mm | - | - | - |
| 1777654939 | 16.11° C | 45% | 1013.3 hPa | 0 mm | - | - | - |
| 1777654640 | 16.11° C | 46% | 1013.5 hPa | 0 mm | - | - | - |
| 1777654339 | 15.56° C | 46% | 1013.5 hPa | 0 mm | - | - | - |
| 1777654039 | 15.56° C | 45% | 1013.5 hPa | 0 mm | - | - | - |
| 1777653738 | 15.56° C | 45% | 1013.5 hPa | 0 mm | - | - | - |
| 1777653440 | 15.56° C | 45% | 1013.6 hPa | 0 mm | - | - | - |
| 1777653139 | 15.56° C | 47% | 1013.7 hPa | 0 mm | - | - | - |
| 1777652841 | 15.56° C | 44% | 1013.7 hPa | 0 mm | - | - | - |
| 1777652541 | 15.56° C | 44% | 1013.7 hPa | 0 mm | - | - | - |
| 1777652246 | 15.56° C | 44% | 1013.8 hPa | 0 mm | - | - | - |
| 1777651943 | 15.56° C | 42% | 1013.9 hPa | 0 mm | - | - | - |
| 1777651344 | 15° C | 46% | 1014 hPa | 0 mm | - | - | - |
| 1777651044 | 15° C | 44% | 1014 hPa | 0 mm | - | - | - |
| 1777650742 | 15° C | 46% | 1014.2 hPa | 0 mm | - | - | - |
* Rain latest hour (hover to see other rain measurements)
** Current wind speed in m/s (hover to see current wind gust speed)